Theta_e
322 322 320 319 317 317 313 312 312 315 318 318 319 319 317 317 321 321 321 321 321 320 314 308 306 306 305 306 307 309 311 311 311 309 308 309 312 313 312 311 313 312 312 314 315 315 315
321 319 317 313 310 309 308 307 307 307 307 307 307 307 309 311 314 317 317 319 320 321 320 317 308 306 304 307 308 309 312 312 309 309 309 309 312 313 313 312 311 312 313 314 315 314 314
316 314 309 306 305 305 305 304 304 303 303 303 303 303 303 304 305 308 311 313 315 318 319 318 310 306 304 307 307 307 310 310 309 309 309 309 310 313 312 312 313 313 313 310 310 313 312
304 304 303 303 302 302 301 301 300 301 301 301 301 301 301 302 302 303 304 307 310 313 316 315 310 306 306 307 307 308 309 310 310 308 308 309 311 311 312 313 312 312 311 311 309 310 312
300 300 300 300 300 300 300 300 300 300 301 301 301 301 301 301 302 302 303 304 306 311 314 313 309 306 307 308 309 310 311 310 309 309 308 309 310 311 312 310 307 307 306 307 308 310 310
299 300 300 300 300 300 301 301 301 301 301 301 301 301 301 301 301 302 303 305 309 311 311 310 308 309 310 309 310 311 310 309 310 310 309 309 310 309 307 306 306 305 308 307 307 310 310
299 300 300 300 300 301 301 301 302 302 302 301 301 301 302 301 300 301 305 305 310 310 309 310 311 312 313 311 311 311 309 309 310 310 307 309 307 307 308 308 305 305 306 307 307 309 311
299 299 299 300 300 300 300 301 301 301 301 301 301 300 300 301 300 302 310 314 311 307 306 308 308 308 309 309 309 310 309 308 309 307 307 308 308 305 306 306 309 309 308 308 307 306 310
299 299 300 300 300 300 301 302 302 301 301 301 300 300 300 300 300 306 309 313 315 311 306 307 308 308 308 308 307 308 309 309 307 306 306 306 306 308 307 307 308 307 308 308 308 307 306
299 299 301 303 304 304 303 302 302 301 301 300 300 299 300 300 303 306 310 312 314 308 306 307 308 309 308 309 308 309 309 309 308 307 305 305 306 307 307 307 306 308 306 308 308 307 307
298 298 298 301 303 305 305 304 304 302 302 302 302 300 299 299 298 302 309 313 313 308 308 309 308 309 309 307 309 309 309 309 308 308 306 306 307 307 308 307 306 307 305 306 306 305 305
297 297 298 299 300 302 302 303 303 304 303 302 302 301 299 299 300 299 305 313 310 306 307 312 308 309 308 308 308 308 308 308 308 307 306 305 306 307 306 306 305 307 307 305 303 303 306
296 297 297 296 299 303 302 302 302 303 303 302 302 302 300 299 300 302 306 311 303 305 305 308 309 309 308 309 309 307 307 306 306 308 307 306 306 306 306 307 307 306 306 309 308 306 309
296 296 295 296 296 299 302 301 302 301 302 302 302 301 300 301 301 301 307 303 305 304 306 308 308 308 310 307 308 308 307 307 305 305 305 306 310 307 306 308 308 305 306 308 311 309 308
297 297 297 298 298 297 301 301 300 301 301 301 302 301 300 302 305 309 309 304 299 301 307 307 306 308 309 308 308 307 306 306 305 304 308 307 306 306 306 306 307 306 306 306 306 305 305
300 300 299 299 299 298 300 301 299 300 301 302 301 301 303 307 305 307 307 306 305 306 307 307 306 307 308 308 309 309 308 308 307 305 305 307 309 307 306 305 306 306 305 308 305 309 310
301 300 299 299 299 299 298 298 299 299 301 301 301 301 304 307 306 306 305 303 305 306 306 307 307 307 309 309 309 309 307 307 306 306 306 307 308 307 307 307 307 306 305 305 305 305 310
300 300 300 299 300 299 299 298 297 297 299 301 301 299 302 305 304 302 301 303 305 305 307 305 306 306 306 306 307 307 307 307 305 305 307 307 307 308 307 306 304 304 304 305 307 309 307
300 299 299 300 300 299 299 298 298 297 298 299 301 300 301 302 301 300 301 303 304 304 304 305 307 307 306 308 306 305 306 305 305 306 305 305 305 306 304 303 303 304 306 307 305 305 305
299 300 299 299 299 299 299 298 298 297 296 299 300 299 300 303 303 303 301 302 302 303 304 304 304 305 306 303 305 307 305 305 305 304 306 305 305 305 304 303 303 304 304 303 303 304 303
299 300 299 299 300 300 299 300 298 297 296 298 301 300 299 295 302 301 302 299 302 302 303 302 303 304 305 306 304 303 303 304 303 304 303 304 303 301 302 302 302 303 303 303 303 302 304
297 297 298 298 300 300 300 300 299 298 297 297 298 300 300 300 300 300 301 300 301 301 301 300 303 303 303 305 304 304 305 305 303 300 301 298 301 300 300 300 301 302 301 300 301 301 301
297 297 297 298 300 299 298 299 299 299 298 297 297 298 300 300 299 298 298 299 300 301 301 302 302 303 302 301 301 301 302 302 301 298 299 302 303 302 299 299 296 296 294 294 295 289 289
297 297 297 297 297 297 297 297 299 299 298 298 297 297 298 299 300 300 299 298 299 300 301 301 301 297 300 300 300 300 298 298 298 299 300 301 301 301 298 293 299 292 290 290 291 287 286
296 297 297 297 297 297 297 297 298 299 298 298 298 297 297 297 298 299 300 299 300 300 298 299 300 300 300 300 300 294 292 292 290 293 297 298 299 300 300 293 295 293 289 288 286 286 284
295 295 295 296 297 297 297 297 297 298 298 298 298 298 297 296 296 297 298 299 298 299 298 298 299 298 298 299 299 298 299 295 293 295 295 297 298 300 295 298 295 285 286 285 287 288 283
295 296 295 295 295 295 296 296 297 297 297 298 298 298 297 297 296 297 299 299 299 299 296 296 296 296 297 299 300 300 299 292 294 295 296 297 296 298 296 297 286 282 282 284 291 286 281
296 296 296 295 295 295 294 294 296 297 297 297 297 298 296 297 296 297 298 299 298 298 298 297 297 296 295 297 298 296 290 293 291 292 297 294 295 291 288 291 293 280 283 285 279 280 281
296 296 296 296 295 295 294 294 296 297 297 297 297 297 297 296 297 296 298 297 298 299 299 297 297 295 296 290 290 295 298 293 293 295 286 292 281 285 285 283 280 279 278 277 277 278 280
Wind_Speed
15 14 14 16 18 18 19 20 20 20 19 19 20 22 22 23 23 23 23 24 24 24 23 22 22 21 18 9 14 13 10 9 8 9 9 10 11 6 4 4 3 5 4 8 15 10 11
11 14 16 16 17 17 19 20 20 20 21 21 22 23 24 24 24 24 23 23 24 24 25 24 22 19 15 7 11 10 9 10 9 8 8 10 5 7 5 5 5 4 5 7 6 12 9
12 13 14 15 16 18 18 19 21 22 23 24 24 24 23 24 25 25 26 25 25 26 26 24 19 16 16 24 16 13 10 10 9 10 9 10 11 7 2 5 5 5 6 7 8 8 6
13 14 16 17 18 19 21 22 23 23 23 23 23 23 24 26 26 27 26 25 25 25 24 21 16 13 11 12 12 11 12 11 11 10 9 8 9 9 6 4 5 4 1 4 2 5 4
16 17 18 19 20 21 21 22 23 25 25 25 26 26 25 25 25 25 25 24 24 22 20 16 12 8 9 6 7 6 10 8 6 7 6 5 6 5 1 4 4 2 6 6 9 10 2
16 18 20 21 23 24 24 25 25 26 27 27 27 27 26 25 25 25 25 24 17 18 11 7 7 5 8 6 4 4 5 7 5 5 3 5 4 1 2 4 7 6 5 5 7 1 3
18 19 19 20 22 23 24 24 25 26 26 26 26 26 26 25 24 24 24 21 9 5 6 11 20 23 27 22 16 11 9 10 8 5 6 4 3 9 13 11 5 2 4 6 4 2 4
19 20 22 23 24 23 23 23 23 24 24 25 26 26 24 22 20 18 16 7 7 10 17 26 30 28 27 14 6 11 11 8 7 6 4 1 11 10 7 6 8 9 6 14 7 6 6
21 22 23 23 23 23 23 24 24 23 23 23 23 24 24 20 16 12 11 9 13 13 6 13 4 4 2 3 8 9 16 6 4 6 6 8 6 4 5 5 5 4 8 9 12 5 6
23 24 22 22 21 21 21 21 22 23 22 23 23 24 23 22 8 9 8 8 14 11 3 6 2 1 0 1 2 3 8 2 1 6 5 6 5 7 4 8 9 6 9 12 8 1 4
23 22 22 20 19 19 20 21 22 21 21 22 23 23 23 17 15 9 8 10 12 5 5 1 1 1 0 2 2 1 5 3 3 2 4 6 2 4 5 7 8 9 5 6 4 5 2
23 21 21 20 19 19 20 20 20 23 21 22 23 22 24 16 13 11 11 8 6 4 7 3 2 2 2 1 2 3 3 4 2 1 3 8 2 4 7 4 7 1 1 2 4 2 5
22 22 23 21 19 19 19 20 20 21 22 23 23 22 22 19 11 9 9 4 3 4 4 4 2 4 2 3 2 4 3 2 4 2 2 3 4 3 2 1 1 3 5 4 3 0 7
22 22 22 22 20 17 19 20 20 20 21 22 23 22 20 14 10 9 4 3 5 3 4 3 4 4 4 3 1 1 2 2 3 3 1 2 6 3 2 5 3 4 6 4 6 3 4
22 21 21 22 21 20 17 21 20 20 18 21 22 20 16 6 3 2 2 1 5 3 3 6 5 2 3 2 1 2 4 4 1 5 5 3 5 2 3 1 4 3 4 3 2 3 2
23 23 22 21 21 22 16 21 20 17 16 18 21 22 5 3 2 5 4 5 5 3 1 2 2 3 4 2 3 4 3 0 2 3 1 1 6 4 4 1 2 3 2 2 1 4 8
23 24 23 22 21 22 21 22 21 18 16 16 15 12 2 3 4 5 3 6 5 6 1 3 2 4 2 3 2 1 4 3 2 2 5 2 4 3 4 1 3 5 3 4 2 4 9
22 24 25 24 23 23 22 23 21 19 17 13 6 3 2 2 0 3 3 4 5 4 1 4 2 6 6 5 5 7 6 8 1 3 3 2 2 5 8 8 5 3 2 1 3 7 3
25 23 23 25 25 24 24 22 21 19 15 14 7 8 10 7 3 4 4 4 4 3 3 3 4 6 2 2 4 5 3 1 4 3 3 1 1 4 5 1 3 4 2 2 6 4 15
26 26 25 25 24 22 22 20 19 17 14 12 5 3 3 7 9 4 6 6 4 4 5 6 5 5 2 4 6 3 3 3 2 4 2 3 4 6 8 7 2 12 16 10 3 7 12
27 28 27 26 26 23 23 21 19 17 12 10 7 4 4 2 4 6 2 2 3 4 3 4 3 5 5 4 2 5 5 3 2 4 4 7 5 7 10 12 9 14 14 15 14 16 10
30 30 29 29 28 26 26 24 20 18 14 15 7 5 5 6 10 8 8 6 10 7 5 5 7 6 7 4 1 5 4 1 4 3 5 3 4 5 6 9 13 15 16 13 10 10 9
30 29 30 31 29 28 32 29 24 21 18 14 16 20 17 7 4 6 6 8 9 7 10 15 7 2 5 12 14 20 16 13 8 5 6 5 2 2 7 2 2 6 4 2 2 4 2
30 30 29 28 31 31 31 31 29 25 24 27 24 18 8 11 10 12 7 11 15 14 12 9 8 5 8 8 11 11 12 16 15 16 13 8 3 2 4 1 5 2 3 4 3 6 4
34 33 33 32 31 30 30 28 27 27 25 30 29 24 12 9 12 11 13 9 14 19 7 10 20 18 11 4 3 4 4 6 4 6 11 11 5 3 3 4 1 4 3 1 2 3 7
30 29 33 34 32 30 29 30 28 26 28 30 33 31 17 7 11 23 15 18 13 13 6 8 14 10 5 3 3 5 4 3 4 1 2 3 10 4 1 2 5 1 2 8 4 3 13
33 31 30 28 31 34 32 30 27 27 26 26 32 33 25 9 26 20 10 7 4 5 3 1 3 4 11 3 4 4 4 3 2 4 4 2 1 8 5 2 1 5 13 10 4 3 20
32 31 30 29 29 30 29 29 27 27 26 23 27 30 27 8 24 19 23 18 14 9 3 6 2 3 3 3 1 3 3 6 3 1 2 4 3 3 2 1 5 19 3 2 6 12 17
29 28 28 28 27 27 25 25 26 27 20 20 25 28 23 20 15 19 30 29 27 23 13 9 3 5 7 1 1 2 3 2 3 3 6 1 1 1 2 3 6 13 15 11 13 13 15
Wind_Direction
12 10 9 4 3 5 4 0 360 357 353 349 343 340 339 336 335 335 336 333 329 326 321 313 306 305 303 289 263 277 257 256 259 253 239 224 216 206 205 224 233 232 249 244 245 227 227
352 353 1 359 357 356 353 351 351 348 346 343 341 338 336 332 330 329 328 328 326 323 318 311 301 291 282 246 263 270 255 254 257 250 244 232 252 255 278 242 185 301 265 265 262 252 244
353 349 348 348 346 346 345 343 342 341 340 338 337 336 336 332 331 328 326 325 322 320 319 314 306 285 267 266 266 264 255 253 259 260 252 236 236 233 311 294 295 309 307 307 234 225 234
345 344 342 339 337 336 334 333 331 329 328 328 328 329 331 330 330 329 329 326 321 316 312 309 305 283 258 263 265 256 251 257 262 256 250 243 236 244 233 294 338 329 327 306 328 134 238
334 332 330 328 327 326 326 326 325 324 324 324 324 325 325 324 324 325 327 328 323 308 303 301 293 271 264 266 267 258 248 246 241 238 234 235 226 230 161 101 351 316 251 228 314 201 119
328 329 328 327 326 325 324 323 322 320 320 320 321 320 320 320 321 323 325 330 317 299 296 295 270 276 248 254 260 233 223 218 204 209 206 196 208 114 47 117 231 229 234 255 251 307 202
326 326 324 323 322 320 319 318 317 317 318 317 317 317 316 318 321 324 330 349 344 295 274 258 267 256 262 266 266 238 213 198 197 182 187 197 168 212 202 208 178 191 222 257 272 218 207
325 325 324 322 321 320 320 319 318 319 319 319 320 319 317 317 318 321 334 24 13 312 304 293 279 261 257 257 260 220 204 195 175 203 151 52 241 226 192 199 236 261 273 269 290 230 203
324 323 321 322 326 330 333 333 333 335 331 329 327 323 321 320 315 309 337 358 344 333 279 300 259 268 296 240 224 246 210 203 177 180 195 185 215 102 155 220 214 229 234 257 249 295 230
324 325 328 329 331 332 330 329 329 331 334 334 335 332 331 325 318 316 314 332 335 325 1 274 287 328 152 192 296 239 210 235 261 222 196 238 262 256 232 250 166 256 219 241 265 285 268
326 325 324 322 321 323 324 326 325 327 329 332 337 335 329 330 312 305 292 313 333 327 342 38 117 123 206 151 297 113 183 208 248 297 116 249 244 205 207 222 161 230 163 200 225 215 339
327 327 327 325 320 315 312 314 317 321 323 327 332 331 326 324 304 291 285 307 318 49 252 8 81 5 359 184 213 167 168 218 229 257 232 246 309 257 217 217 188 263 75 46 61 107 263
327 325 325 324 324 329 328 322 312 309 315 321 327 328 322 317 306 281 286 294 40 162 330 352 338 1 321 244 231 168 166 184 205 323 298 306 237 254 198 236 268 110 66 312 311 314 242
328 328 328 327 318 314 321 320 322 316 314 318 321 325 326 313 305 285 259 50 212 224 263 359 328 311 238 10 197 175 128 251 188 121 197 226 318 174 181 194 222 179 164 174 261 237 275
328 332 334 333 332 331 324 323 319 326 322 318 320 326 327 308 279 345 183 150 232 233 352 353 316 277 286 193 320 42 205 210 167 167 192 234 257 273 207 234 162 160 188 200 259 216 266
321 325 326 327 331 334 320 321 325 319 324 325 326 327 341 355 227 200 189 240 248 215 25 18 253 244 246 296 360 34 303 226 28 113 62 343 301 270 321 32 277 174 204 297 18 281 260
311 313 317 317 319 324 325 317 319 319 320 328 330 322 338 16 164 216 232 234 286 267 304 207 256 300 282 332 302 258 265 324 33 15 54 42 211 283 7 262 244 312 281 237 218 193 263
305 304 309 310 309 311 314 319 323 316 316 323 317 311 270 147 195 214 227 232 312 288 74 296 233 232 226 216 243 225 228 215 176 180 132 220 212 267 225 248 263 265 268 241 250 274 270
305 304 300 302 305 305 306 309 314 321 315 322 293 267 275 239 222 233 263 275 286 269 256 258 261 208 158 250 264 222 246 158 73 80 128 298 1 309 298 18 24 51 14 128 312 277 269
296 296 296 298 301 298 298 305 309 314 311 302 280 300 261 215 239 254 266 263 254 294 264 250 261 260 204 250 215 267 247 230 169 166 158 114 197 215 253 257 267 286 291 304 237 280 291
295 293 292 291 292 290 292 289 299 302 300 278 236 248 237 274 236 249 290 342 290 306 264 323 289 240 242 245 232 235 242 282 265 211 195 175 234 212 245 256 255 264 269 267 264 265 264
295 290 289 283 285 286 286 286 284 288 269 258 252 244 248 234 230 211 215 205 238 239 214 257 238 282 281 259 202 313 296 114 240 308 174 194 254 202 262 257 254 260 263 266 273 285 292
296 298 291 288 285 281 280 282 275 273 261 249 249 254 258 266 215 210 215 225 227 216 239 232 240 269 274 264 271 266 256 253 243 202 206 182 214 207 264 246 352 295 236 92 121 73 301
293 290 291 291 286 289 283 278 272 262 258 256 250 251 260 271 238 237 217 229 244 228 235 241 242 190 251 265 303 282 269 256 244 247 244 247 216 227 279 63 227 157 59 121 130 112 31
291 288 285 283 283 281 281 282 272 274 264 261 255 240 232 259 259 260 231 235 259 266 256 242 264 261 270 270 266 311 324 356 281 225 224 221 204 224 227 192 107 163 44 34 116 211 19
295 293 290 285 286 284 280 281 282 276 271 264 261 252 231 246 243 253 267 254 252 252 246 234 253 264 215 252 212 219 217 217 287 291 75 227 216 211 148 208 225 203 314 333 298 245 6
296 294 296 296 291 287 285 282 281 275 274 269 260 262 235 233 257 244 236 263 226 254 213 178 209 210 208 219 233 209 230 183 234 199 195 190 201 225 225 251 20 318 311 319 189 298 321
291 292 291 298 293 291 287 285 286 279 271 270 275 267 240 255 265 261 245 237 240 192 169 180 182 196 164 247 225 219 186 214 131 200 240 160 161 207 42 164 245 349 48 40 315 326 327
292 293 290 296 295 293 294 290 289 292 284 271 264 267 256 247 260 288 242 246 252 264 239 192 175 154 226 125 277 259 209 158 131 206 26 161 341 141 21 101 91 55 69 26 7 332 331